weather.gov     
National Weather Service

Regional Weather Roundup
NWS Homepage
This page is being discontinued on March 12, 2014.
The same data is available at this site. Please update your bookmarks.
Thank you, and we apologize for the inconvenience.
Please send an email to SR-SRH.Webmaster@noaa.gov with any concerns.


Current Version
Previous Version:    01  02  03  04  05  06  07  08  09  10  11  12  13  14  15  16  17  18  19  20  21  22  23  24  25  26  27  28  29  30  
   31  32  33  34  35  36  37  38  39  40  41  42  43  44  45  46  47  48  49  50  51  52  53  54  
[Printable]
077
ASUS44 KMAF 200810
RWRMAF
MIDLAND AREA WEATHER ROUNDUP
NATIONAL WEATHER SERVICE MIDLAND TX
300 AM CDT MON OCT 20 2014

...IN SOUTHWEST TEXAS AND SOUTHEAST NEW MEXICO...

CITY           SKY/WX    TMP DP  RH WIND       PRES   REMARKS
ALPINE         CLEAR     59  54  82 S8        30.12R
ANDREWS        FAIR      58  56  94 SE6       30.07F
ARTESIA        NOT AVBL
BIG SPRING     CLEAR     61  56  84 SE7       30.09S
CARLSBAD       CLOUDY    61  57  87 CALM      30.06F
DRYDEN           N/A     64  62  93 NE8       29.99S
FORT STOCKTON  CLEAR     65  57  75 SE10      30.04R
GUAD PASS      CLOUDY    56  54  93 SW3       30.16R
HOBBS          MOCLDY    55  55 100 E3        30.10S
MARFA          PTCLDY    57  52  82 W7        30.14R
MIDLAND AIRPK  CLEAR     59  56  88 NE3       30.07F
MIDLAND INTL   CLEAR     61  57  87 E5        30.06F
ODESSA         CLEAR     59  55  87 E6        30.06F
PECOS          PTCLDY    61  56  85 E7        30.02F
PRESIDIO       LGT RAIN  67  58  72 MISG      30.02R
SEMINOLE       CLEAR     55  53  93 CALM      30.09F
SNYDER         PTCLDY    61  56  84 SE8       30.07S
WINK           PTCLDY    62  57  83 E6        30.03S
$$
...OTHER STATIONS IN TEXAS...

CITY           SKY/WX    TMP DP  RH WIND       PRES   REMARKS
ABILENE        PTCLDY    65  59  81 S13       30.06S
AMARILLO       CLEAR     57  55  93 SW8       30.09F
AUSTIN         PTCLDY    59  58  96 CALM      30.03S
BROWNSVILLE    CLOUDY    73  68  84 CALM      29.93S
CORPUS CHRISTI MOCLDY    72  69  90 NE7       29.96F
DALLAS FTW     PTCLDY    61  53  75 SE3       30.04S
DEL RIO        CLOUDY    70  60  70 E7        29.98F
EL PASO        CLOUDY    61  54  77 N3        30.08S
HOUSTON INT    MOCLDY    63  59  87 E5        30.03S
LUBBOCK        PTCLDY    57  54  89 SE3       30.08F
SAN ANGELO     PTCLDY    59  53  80 E8        30.05S
SAN ANTONIO    MOCLDY    69  64  84 SE5       30.03R
WACO           CLEAR     59  57  93 CALM      30.05R
WICHITA FALLS  NOT AVBL
$$
...OTHER LOCATIONS IN NEW MEXICO...

CITY           SKY/WX    TMP DP  RH WIND       PRES   REMARKS
ALAMAGORDO     NOT AVBL
ALBUQUERQUE    PTCLDY    49  39  68 CALM      30.17S
CANNON AFB     CLEAR     57  54  88 CALM      30.13S
CLOVIS         CLOUDY    52  48  87 SW6       30.15S VSB 1/4
HOLLOMAN AFB   LGT RAIN  57  57  99 SE10      30.14S
ROSWELL        MOCLDY    56  51  84 CALM      30.09S
RUIDOSO        MOCLDY    50  46  87 CALM      30.24F
SANTA FE       PTCLDY    43  37  79 N6        30.20F WCI  39
TRUTH OR CONSE LGT RAIN  55  51  86 NW9       30.15F
TUCUMCARI      PTCLDY    54  49  83 SW7       30.10S
$$




U.S. Dept. of Commerce
NOAA National Weather Service
1325 East West Highway
Silver Spring, MD 20910
E-mail: w-nws.webmaster@noaa.gov
Page last modified: May 16, 2007
NATIONAL WEATHER SERVICE: for Safety, for Work, for Fun - FOR LIFE